Location: Unspecified
(35.7250°N, 0.0000°E)
Time: 06:33:35
(UTC+00:00)

Courier 1B Rocket - Visible Passes

Search period start: 13 August 2020 00:00
Search period end: 23 August 2020 00:00
Orbit: 920 x 1202 km, 28.2° (Epoch: 12 August)

Date Brightness Start Highest point End Pass type
(mag) Time Alt. Az. Time Alt. Az. Time Alt. Az.
13 Aug 6.9 01:52:57 17° ESE 01:52:57 17° ESE 01:54:33 10° ESE visible
13 Aug 5.4 03:39:19 31° SW 03:41:46 44° S 03:48:05 10° ESE visible
14 Aug 5.7 02:42:08 38° SSE 02:42:08 38° SSE 02:46:59 10° ESE visible
14 Aug 5.6 04:28:30 12° WSW 04:33:52 39° S 04:40:05 10° ESE visible
15 Aug 7.1 01:45:00 14° ESE 01:45:00 14° ESE 01:45:52 10° ESE visible
15 Aug 5.4 03:31:23 36° SW 03:32:58 42° S 03:39:07 10° ESE visible
16 Aug 6.0 02:34:19 32° SE 02:34:19 32° SE 02:38:07 10° ESE visible
16 Aug 5.8 04:20:42 16° WSW 04:25:01 33° SSW 04:30:51 10° SE visible
17 Aug 5.4 03:23:44 37° SSW 03:24:09 38° S 03:30:04 10° SE visible
18 Aug 6.5 02:26:51 22° SE 02:26:51 22° SE 02:29:12 10° ESE visible
18 Aug 6.0 04:13:14 19° SW 04:16:08 26° SSW 04:21:24 10° SE visible
19 Aug 5.9 03:16:27 29° S 03:16:27 29° S 03:20:52 10° SE visible
20 Aug 7.1 02:19:45 12° SE 02:19:45 12° SE 02:20:12 10° SE visible
20 Aug 6.2 04:06:11 19° SW 04:07:13 19° SSW 04:11:36 10° SSE visible
21 Aug 6.6 03:09:34 17° SSE 03:09:34 17° SSE 03:11:27 10° SSE visible
21 Aug 6.7 20:22:42 10° SSW 20:25:22 16° S 20:25:22 16° S visible
22 Aug 6.7 03:59:28 13° SSW 03:59:28 13° SSW 04:01:04 10° S visible
22 Aug 6.8 19:23:14 10° S 19:26:12 13° SSE 19:28:42 11° SE visible
22 Aug 6.8 21:13:10 10° SW 21:15:07 18° SSW 21:15:07 18° SSW visible
